Regional Weather Roundup
Issued by NWS

Home | Current Version | Previous Version | Graphics & Text | Print | Product List | Glossary On
Versions: 1 2 3 4 5 6 7 8 9 10 11 12 13 14 15 16 17 18 19 20 21 22 23 24 25 26 27 28 29 30 31 32 33 34 35 36 37 38 39 40 41 42 43 44 45 46 47 48 49 50
000
ASUS43 KTOP 061508
RWRKS

WEATHER ROUNDUP FOR KANSAS
NATIONAL WEATHER SERVICE GOODLAND KS
900 AM CST TUE DEC 06 2016

NOTE:  "FAIR" INDICATES FEW OR NO CLOUDS BELOW 12,000 FEET WITH NO
SIGNIFICANT WEATHER AND/OR OBSTRUCTIONS TO VISIBILITY.

KSZ001>006-013>018-027>032-041>047-061600-
NORTHWEST KANSAS

CITY           SKY/WX    TMP DP  RH WIND       PRES   REMARKS
GOODLAND       CLEAR     13   4  67 W8        30.05R
HAYS           SUNNY     25  13  60 NW10      30.10R WCI  15
HILL CITY      SUNNY     22   9  57 NW10      30.10R WCI  11
RUSSELL        SUNNY     24  16  71 NW8       30.09R
$$

KSZ061>065-074>080-084>089-061600-
SOUTHWEST KANSAS

CITY           SKY/WX    TMP DP  RH WIND       PRES   REMARKS
DODGE CITY     CLOUDY    21  12  68 NW15      30.09R WCI   8
ELKHART          N/A     18   1  47 NW7         N/A
GARDEN CITY    CLOUDY    17   8  67 NW14      30.09R WCI   3
GREAT BEND     CLOUDY    23  17  78 NW9       30.11R
LIBERAL        MOSUNNY   25  10  54 NW13      30.10R WCI  13
PRATT          CLOUDY    25  15  65 N16       30.09R WCI  13
$$

KSZ066>073-081>083-090>101-061600-
SOUTHEAST KANSAS

CITY           SKY/WX    TMP DP  RH WIND       PRES   REMARKS
CHANUTE        MOSUNNY   34  23  64 N16G24    30.04R WCI  24
COFFEYVILLE    CLOUDY    36  26  67 N20       30.04R WCI  25
HUTCHINSON     SUNNY     30  18  60 N13       30.09R WCI  20
MEDICINE LODGE   N/A     29  18  63 N9        30.11R
NEWTON         SUNNY     29  20  69 N16       30.07R WCI  17
PARSONS        CLOUDY    35  25  66 N20G25    30.04R WCI  24
WICHITA INTL   MOSUNNY   32  20  61 N14       30.08R WCI  22
WICHITA JABRA  SUNNY     30  22  72 N14       30.07R WCI  19
WICHITA MCCONL SUNNY     31  20  65 N14       30.07R WCI  20
WINFIELD       MOSUNNY   31  20  63 N20G26    30.07R WCI  19
$$

KSZ007>012-019>026-033>040-048>060-102>105-061600-
NORTHEAST KANSAS

CITY           SKY/WX    TMP DP  RH WIND       PRES   REMARKS
CONCORDIA      MOSUNNY   25  17  72 W7        30.08R
EMPORIA        SUNNY     30  17  58 NW16G23   30.05R WCI  19
LAWRENCE       SUNNY     32  21  64 NW15      30.04R WCI  22
MANHATTAN      SUNNY     30  14  51 MISG      30.08R
MARYSVILLE     MOSUNNY   27  16  63 NW9       30.07R
OLATHE IND     SUNNY     32  19  58 NW22G31   30.02R WCI  19
OLATHE EXE     SUNNY     32  18  56 N17G25    29.99R WCI  21
SALINA         CLOUDY    29  18  63 NW10      30.11R WCI  20
TOPEKA BILLARD SUNNY     32  19  58 NW12      30.06R WCI  23
TOPEKA FORBES  SUNNY     32  17  54 NW22G29   30.04R WCI  19
$$




USA.gov is the U.S. government's official web portal to all federal, state and local government web resources and services.